Theta_e
309 309 310 310 310 310 311 311 311 311 312 312 312 312 313 313 313 313 314 314 315 314 313 312 314 315 315 317 319 318 311 313 315 315 313 315 313 316 316 317 316 317 317 316 317
309 309 310 310 310 311 311 311 312 312 312 312 312 312 312 313 313 314 314 313 313 313 312 312 314 316 315 318 319 315 310 312 313 315 315 315 315 315 314 314 314 314 315 315 316
309 309 310 310 311 311 311 312 312 312 312 312 312 312 313 314 314 316 312 312 312 312 312 315 316 316 316 316 318 316 313 313 316 316 316 316 314 315 314 312 314 315 315 315 316
310 310 311 311 312 312 312 311 311 311 311 311 313 314 316 317 312 314 313 313 313 312 314 314 315 315 315 314 316 316 317 316 317 317 316 315 316 315 315 315 315 315 315 315 315
311 312 312 312 312 311 311 310 310 310 312 315 317 318 318 317 318 317 316 315 313 312 313 313 314 315 314 314 314 313 314 315 316 315 314 315 314 314 314 315 315 316 316 315 315
310 310 310 309 309 309 309 310 312 314 316 317 317 317 317 315 318 318 317 316 314 311 312 312 314 314 314 313 313 313 313 313 314 315 314 313 312 314 315 316 316 316 316 314 314
314 313 312 312 312 312 314 314 315 316 317 317 317 318 318 318 318 317 317 316 314 312 312 313 314 314 314 313 314 314 312 310 312 313 312 312 313 312 316 315 316 315 312 313 313
314 315 316 316 315 315 315 316 316 316 316 317 318 319 317 317 317 317 316 315 313 312 312 313 314 314 314 313 312 312 311 312 313 313 313 312 313 312 316 315 316 313 311 312 311
314 313 313 313 314 314 315 315 315 316 317 319 319 318 317 315 315 314 313 312 312 312 312 313 314 314 313 309 309 310 311 310 311 313 312 311 311 312 316 314 314 309 310 310 309
313 313 313 313 313 314 315 316 318 318 319 319 319 316 317 315 314 313 312 311 312 311 311 312 312 309 308 308 312 312 310 309 311 311 312 312 309 309 315 313 312 309 308 307 306
315 314 314 315 316 317 318 320 320 320 318 319 318 317 315 315 313 311 311 311 312 312 310 311 308 309 309 309 310 310 310 309 309 310 312 311 311 310 312 312 308 306 305 304 304
320 316 315 317 318 319 319 320 320 319 319 319 320 319 319 316 316 314 313 312 312 311 310 310 309 310 309 309 310 310 310 310 311 310 312 312 311 308 305 305 306 305 304 302 302
324 321 316 317 319 320 320 321 321 321 318 319 319 319 319 318 317 317 315 312 311 310 310 311 312 310 310 311 313 312 312 311 312 312 309 311 311 310 305 305 304 303 302 301 301
325 324 318 318 318 319 320 321 321 319 317 317 316 315 316 316 315 313 312 313 311 311 310 311 311 312 311 313 313 314 312 311 312 310 311 310 313 311 306 304 302 301 301 301 301
325 325 320 317 320 320 320 321 320 317 326 316 313 311 312 314 310 309 311 311 312 312 312 315 313 312 313 313 311 313 310 310 310 309 310 310 310 309 306 306 303 301 301 301 300
324 324 321 319 320 322 321 321 320 323 324 310 309 310 309 308 309 308 310 310 311 311 310 311 310 309 310 309 310 309 310 309 307 308 312 311 310 311 307 306 303 302 301 300 299
324 324 322 320 320 320 322 320 321 323 318 312 311 310 310 309 308 309 308 308 309 311 311 312 311 309 309 310 308 308 309 313 313 312 315 311 310 311 307 305 303 301 300 298 297
324 324 321 321 321 320 321 319 321 321 320 316 314 312 316 315 315 310 309 311 309 311 311 314 313 309 308 310 310 307 310 314 312 315 314 309 312 311 303 303 302 301 299 298 298
322 321 321 322 321 321 318 321 322 321 319 318 316 317 316 316 316 315 311 311 311 309 314 313 312 309 308 309 310 311 312 312 310 296 307 311 308 306 302 300 299 298 298 297 297
320 318 318 320 320 317 316 319 316 316 319 318 317 316 315 316 316 315 314 310 312 308 310 311 313 311 309 309 308 310 309 312 309 308 307 309 310 310 304 302 299 298 297 297 297
318 317 318 317 319 317 315 315 315 316 317 319 319 319 317 317 315 316 314 312 309 309 309 310 310 311 310 310 310 309 309 310 310 309 308 306 308 306 305 302 300 299 300 299 298
313 312 314 316 315 315 312 313 315 315 316 316 316 317 316 315 316 314 314 312 310 310 311 311 310 307 311 307 307 308 308 309 311 310 308 309 310 305 304 302 302 302 301 300 298
307 307 310 312 315 315 313 313 314 314 314 314 316 315 314 315 316 312 312 307 308 309 310 309 308 302 304 304 307 308 308 307 306 304 302 308 307 301 301 300 301 301 300 298 296
305 304 306 309 311 313 313 312 313 312 312 312 313 313 312 312 313 311 309 306 305 307 308 308 303 305 311 304 304 304 306 305 304 302 303 305 304 301 301 299 297 296 297 294 292
303 305 306 305 308 312 310 311 313 310 310 310 308 311 311 311 310 309 306 303 302 303 303 305 302 303 303 305 305 304 304 303 303 301 302 303 301 301 296 296 296 293 292 291 290
303 303 303 303 305 307 309 310 311 310 308 308 309 307 307 309 307 305 304 303 304 300 302 298 298 296 294 300 301 300 301 301 302 301 299 300 299 297 293 293 290 290 290 290 290
301 301 301 303 303 306 306 308 308 306 304 304 306 304 304 305 302 300 300 301 301 300 300 299 295 292 292 292 292 291 292 297 297 296 296 296 296 291 290 289 289 289 290 290 290
Wind_Speed
4 4 4 3 3 3 4 4 5 6 7 7 8 9 9 11 12 14 16 7 6 7 6 4 4 2 1 2 1 1 4 1 3 1 5 9 6 4 7 8 4 6 9 14 14
6 6 6 5 5 5 5 6 6 7 7 8 9 10 11 12 13 13 3 3 2 2 3 5 5 2 1 1 2 3 4 7 5 3 3 5 3 11 5 13 14 18 15 8 13
9 8 8 7 7 7 8 8 8 9 9 10 10 10 11 12 12 0 2 3 3 6 8 9 4 2 2 3 5 5 5 4 5 6 3 5 7 3 4 7 18 19 17 19 18
11 10 10 10 9 10 10 10 10 10 10 10 10 10 10 9 3 3 1 1 2 5 7 6 5 4 3 3 5 2 10 12 8 9 7 4 8 8 9 23 24 23 22 17 19
13 13 12 12 12 12 12 11 11 11 10 9 9 9 9 6 9 11 10 9 8 8 10 7 7 6 3 3 2 5 5 8 9 15 16 14 13 10 22 19 12 10 9 9 13
15 15 15 14 14 13 12 11 11 10 10 10 10 9 9 8 10 9 9 8 8 9 11 10 4 4 4 4 4 2 5 11 14 25 21 9 5 2 11 9 11 7 11 15 13
15 15 15 14 13 13 13 12 12 11 11 10 10 9 12 16 12 10 9 9 9 10 11 10 12 7 2 2 3 3 5 7 15 9 4 3 0 7 9 12 13 13 12 7 6
15 15 16 15 15 14 13 13 12 12 11 10 11 10 9 12 11 11 10 11 10 10 10 9 8 7 4 1 5 3 2 3 4 2 0 4 7 6 11 14 21 15 8 8 9
15 15 15 15 14 13 12 13 12 12 12 12 11 9 7 8 8 9 9 7 7 8 9 7 7 4 2 4 4 3 3 5 8 3 2 3 6 13 21 20 21 9 13 15 14
15 14 14 14 13 13 11 12 11 12 13 12 13 5 13 6 6 6 6 7 5 7 5 5 4 3 2 3 5 6 4 5 4 3 1 4 9 9 26 18 9 16 17 17 18
16 15 14 13 12 12 10 8 7 5 12 10 6 6 3 7 7 6 7 9 7 5 5 5 4 7 12 11 3 3 4 5 6 7 1 7 5 11 19 15 10 20 23 23 25
17 18 16 14 13 12 10 6 7 4 9 17 22 23 19 11 7 10 10 9 7 6 5 2 7 13 2 4 6 7 7 7 5 6 3 4 11 7 15 9 20 24 24 25 25
22 20 18 16 14 14 12 10 8 6 5 9 18 13 16 18 10 12 15 9 6 6 7 8 6 6 7 5 6 4 5 4 7 4 4 2 8 3 6 20 24 23 23 23 25
26 23 20 17 17 15 14 11 9 3 2 5 5 5 9 9 4 10 16 7 4 9 6 6 8 7 5 5 6 4 7 7 4 3 3 3 3 2 3 8 13 17 22 23 24
28 31 26 22 11 14 10 14 10 4 4 1 4 6 8 7 10 5 12 7 5 5 6 5 1 3 4 7 6 7 3 3 2 3 2 3 3 4 6 3 5 9 19 21 21
29 29 25 25 25 16 13 16 13 3 9 4 5 5 5 4 4 6 4 4 3 2 1 6 2 3 6 2 4 4 3 5 5 3 1 5 6 4 5 8 7 12 16 19 20
25 30 32 31 31 26 21 18 3 6 2 5 5 5 4 5 3 5 5 4 5 4 3 2 4 2 3 4 2 3 5 1 3 2 5 4 2 3 4 11 14 15 18 18 17
29 30 32 31 31 26 28 3 8 6 6 2 4 5 6 6 4 5 5 3 5 2 3 4 3 8 5 6 6 6 7 5 6 4 4 4 5 2 5 18 24 22 19 16 13
21 28 32 35 34 31 27 9 6 6 6 8 3 5 4 4 4 5 7 6 9 11 8 6 5 1 2 2 5 5 4 1 5 3 3 4 2 2 6 8 13 18 16 13 9
25 19 16 23 23 37 8 7 4 4 5 4 8 5 7 7 6 7 7 5 5 10 4 5 1 1 2 2 2 3 4 3 3 2 4 4 5 4 9 10 8 11 15 13 10
25 13 18 21 27 17 6 6 5 7 5 6 10 10 8 6 10 6 5 2 3 4 8 4 3 3 2 4 7 1 0 3 2 4 4 2 5 1 14 13 13 17 18 15 12
13 3 12 25 12 3 4 6 6 6 10 4 2 9 9 9 7 8 9 2 4 6 7 3 4 4 6 2 3 1 4 5 4 5 3 2 9 3 12 16 20 17 14 14 11
8 1 5 16 4 5 2 2 6 5 4 8 7 3 3 6 5 4 3 1 4 4 9 7 1 1 6 3 1 3 3 4 5 3 5 4 6 3 10 11 10 10 13 12 9
8 2 6 9 6 2 5 5 5 11 5 5 4 5 4 4 4 2 3 1 4 1 2 5 4 7 10 5 5 4 5 4 5 3 3 6 4 6 9 7 10 8 12 14 11
6 4 5 3 7 7 1 3 9 7 6 14 3 8 6 6 5 6 4 1 2 1 2 3 5 3 3 2 2 4 8 8 6 5 7 9 9 13 4 5 12 15 17 13 7
8 4 4 2 5 7 10 8 14 4 8 5 8 9 8 11 7 7 7 5 5 2 2 4 2 3 3 4 2 6 8 10 12 11 10 13 19 9 1 8 17 17 13 6 4
18 9 6 3 4 7 12 15 11 6 4 2 12 6 6 7 9 10 9 7 8 7 5 4 5 3 5 4 5 9 7 18 8 6 8 11 11 5 5 11 19 15 9 6 7
Wind_Direction
252 255 258 265 265 272 281 291 299 306 311 313 316 316 318 317 315 312 312 290 272 263 271 218 189 210 228 146 131 144 61 255 249 21 289 337 3 354 319 286 279 264 276 297 300
260 260 264 269 278 282 285 290 296 301 303 307 310 314 315 317 316 312 308 296 251 214 180 162 150 139 128 174 180 121 126 223 213 182 254 291 299 311 316 296 294 296 301 285 322
258 261 264 267 272 278 285 289 293 297 300 303 305 309 313 318 324 164 101 84 116 146 153 159 169 180 213 207 196 177 198 220 251 258 265 280 285 257 295 298 295 301 309 303 306
257 262 265 268 270 273 276 280 285 289 294 298 302 306 308 311 295 188 194 248 250 213 197 196 207 187 199 217 214 189 248 247 274 290 305 270 297 301 266 281 308 305 304 304 308
260 261 263 266 268 271 275 279 283 287 292 297 300 300 298 277 256 261 266 264 260 231 217 216 210 193 194 220 279 212 256 256 264 282 282 277 259 267 281 297 309 326 325 343 344
262 263 264 265 267 268 270 274 278 283 289 292 293 291 278 253 264 256 264 263 255 233 224 223 216 188 258 236 194 235 283 284 289 283 280 258 270 158 274 313 311 347 354 344 341
258 260 262 263 265 266 267 272 275 278 283 286 285 283 268 263 265 256 256 260 255 240 224 219 221 232 198 288 313 295 322 316 273 279 229 198 300 226 286 290 291 311 2 357 43
256 257 259 262 264 266 269 272 274 279 280 279 280 278 259 260 249 250 259 257 243 233 230 222 219 242 237 289 345 326 40 326 295 168 129 136 264 266 307 292 287 326 75 95 89
256 257 258 259 262 265 267 271 276 276 274 272 271 254 256 246 243 246 239 231 224 220 222 225 214 214 148 92 359 347 240 216 309 317 133 140 249 273 298 287 296 54 114 110 97
259 257 254 256 257 261 266 273 277 273 265 264 244 256 234 222 214 226 216 188 183 174 159 169 159 99 59 105 219 222 220 236 236 271 41 253 246 277 280 297 285 128 116 102 88
257 254 251 250 250 254 257 276 270 253 229 218 223 207 205 208 209 194 186 175 164 174 165 184 119 203 211 202 169 168 210 229 253 261 280 266 279 261 293 296 124 121 115 101 88
256 260 252 247 243 244 245 234 229 248 291 250 249 250 251 240 218 200 192 179 179 200 141 82 222 230 196 161 213 242 251 255 283 257 226 294 295 31 27 22 112 114 110 105 99
254 252 253 248 245 238 234 231 243 234 256 264 242 239 237 229 230 213 197 194 183 189 193 190 214 195 180 221 207 213 207 219 233 302 292 326 295 108 51 72 80 91 104 101 95
245 245 241 238 246 238 227 221 208 194 288 249 213 209 174 164 205 187 188 188 201 201 208 235 251 204 200 211 171 256 233 213 236 115 232 79 277 43 93 72 68 93 105 103 97
242 242 231 224 225 207 219 188 184 120 265 143 161 160 160 177 135 178 182 187 188 182 129 240 233 181 186 219 156 223 173 173 161 140 54 318 115 260 131 107 117 106 110 106 98
239 233 224 218 219 213 191 187 148 133 235 195 146 166 134 166 154 128 154 162 159 171 176 236 263 220 209 131 170 152 102 51 39 92 246 211 161 247 193 180 151 135 121 111 103
242 233 226 219 218 209 200 176 160 209 111 192 185 163 167 161 170 163 162 175 162 125 196 265 228 261 173 122 36 112 86 333 345 341 227 169 132 256 337 141 146 139 130 117 104
234 235 219 223 224 219 205 176 213 181 191 133 121 129 168 158 198 188 131 206 236 161 145 169 270 177 195 198 181 188 169 164 205 210 245 274 241 301 48 105 131 138 134 128 113
219 218 221 221 225 210 172 210 217 184 165 151 74 136 183 213 166 157 203 207 200 180 175 181 260 121 171 171 152 189 185 198 106 44 67 224 40 114 108 102 129 141 146 140 127
199 199 205 199 199 174 187 209 216 220 127 155 173 165 176 193 158 183 200 216 212 189 204 189 210 47 183 127 63 168 161 69 8 167 260 277 268 200 177 172 172 168 169 164 170
192 173 197 195 192 188 197 216 202 222 207 171 197 188 216 188 194 189 219 290 164 149 138 130 134 247 142 205 189 128 168 84 133 152 185 243 254 242 177 175 178 188 191 188 194
163 148 170 182 192 218 171 179 186 166 183 241 265 195 194 184 197 203 213 226 11 161 154 183 145 182 201 341 318 345 202 166 155 225 227 174 261 96 157 168 176 192 203 207 209
129 111 206 191 209 196 166 183 194 155 176 177 206 248 124 168 201 213 203 71 341 185 161 179 164 64 350 345 48 186 170 127 104 81 203 183 258 98 118 144 192 202 202 191 184
129 163 236 250 267 239 165 191 209 195 189 194 170 134 153 170 209 215 182 310 314 152 119 131 148 179 224 189 134 158 171 166 132 137 184 222 273 176 171 180 200 196 182 172 177
163 212 190 189 239 229 279 172 194 182 215 186 185 207 170 195 203 200 160 167 359 15 52 132 188 142 285 138 138 184 172 187 182 180 192 248 222 256 211 230 209 174 163 169 174
168 201 198 194 184 216 234 218 234 207 170 210 221 190 189 211 182 192 143 184 192 83 102 357 170 101 315 291 233 268 193 191 218 234 243 252 267 270 99 159 151 163 167 179 223
199 201 169 219 170 178 225 235 221 164 237 233 204 147 200 207 139 113 116 124 148 146 161 128 129 86 262 1 29 303 207 203 201 198 219 226 243 169 164 158 164 165 181 209 247